Location: Dammartin
(48.9032°N, 1.6195°E)
Time: 11:10:15
(UTC+00:00)

Cosmos 1892 - Pass Details

Date: 03 February 2023
Orbit: 486 x 506 km, 82.5° (Epoch: 30 March)

Event Time Altitude Azimuth Distance (km) Brightness Sun altitude
Rises 18:04:17 0° 186° (S) 2,569 6.5 -11.8°
Reaches altitude 10° 18:06:22 10° 185° (S) 1,697 5.5 -12.2°
Maximum altitude 18:10:04 81° 100° (E) 515 2.5 -12.8°
Drops below altitude 10° 18:13:52 10° 12° (NNE) 1,729 5.1 -13.4°
Sets 18:16:01 0° 11° (N) 2,624 6.1 -13.7°
